User: anonymous   Login
Location: Jaite
(41.2884°N, 81.5737°W)
Time: 11:34:35
(UTC+00:00)
Language:

Cosmos 2227 Rocket - Orbit

View from above orbital plane
View from above orbital plane
View from above satellite
View from above satellite

Ground track
Ground track

The orbit data is extracted from the following two-line orbital elements,

1 22285U 92093B   20088.85512544 -.00000267 +00000-0 -11308-3 0  9997
2 22285 071.0209 241.6004 0004157 345.7960 014.3045 14.15042833405937
Epoch (UTC): 28 March 2020 20:31:22
Eccentricity: 0.0004157
inclination: 71.0209°
perigee height: 839 km
apogee height: 845 km
right ascension of ascending node: 241.6004°
argument of perigee: 345.7960°
revolutions per day: 14.15042833
mean anomaly at epoch: 14.3045°
orbit number at epoch: 40593

The dashed part of the orbit path shows where the satellite is in the earth's shadow,  

DLR